Greenville, AL

12:15 AM CDT on October 24, 2017 (GMT -0500)
Greenville Municipal

Weather History for KPRN - August, 2013

Change the Weather History Date:

Sunday, August 4, 2013

  Actual Average Record
Temperature  
Mean Temperature 83 °F -  
Max Temperature 91 °F 91 °F 102 °F (1954)
Min Temperature 75 °F 68 °F 63 °F (1976)
Cooling Degree Days 18    
Growing Degree Days 33 (Base 50)    
Moisture  
Dew Point 74 °F    
Average Humidity 78    
Maximum Humidity 94    
Minimum Humidity 54    
Precipitation  
Precipitation 0.00 in - - ()
Sea Level Pressure  
Sea Level Pressure 30.02 in    
Wind  
Wind Speed 4 mph (WNW)    
Max Wind Speed 9 mph    
Max Gust Speed 17 mph    
Visibility 9 miles    
Events      
Averages and records for this station are not official NWS values.
T = Trace of Precipitation, MM = Missing Value Source: NWS Daily Summary

Daily Weather History Graph

Daily Weather History Graph

Search for Another Location

Airport or City:

Trip Planner

Search our weather history database for the weather conditions in past years. The results will help you decide how hot, cold, wet, or windy it might be!

Date:

Astronomy

Aug. 04, 2013 Rise Set
Actual Time 6:04 AM CDT 7:40 PM CDT
Civil Twilight 5:37 AM CDT 8:06 PM CDT
Nautical Twilight 5:06 AM CDT 8:38 PM CDT
Astronomical Twilight 4:32 AM CDT 9:11 PM CDT
Moon 4:05 AM CDT (8/4) 6:03 PM CDT (8/4)
Length of Visible Light 14h 28m
Length of Day
13h 36m
Waning Crescent, 4% of the Moon is Illuminated
Aug 4
Waning Crescent
Aug 6
New
Aug 14
First Quarter
Aug 20
Full
Aug 28
Last Quarter

Hourly Weather History & Observations

Time (CDT) Temp. Heat Index Dew Point Humidity Pressure Visibility Wind Dir Wind Speed Gust Speed Precip Events Conditions
12:56 AM 75.9 °F - 73.9 °F 94% 30.04 in 5.0 mi Calm Calm - N/A   Clear
1:56 AM 77.0 °F - 73.0 °F 88% 30.03 in 9.0 mi Calm Calm - N/A   Clear
2:56 AM 75.9 °F - 72.0 °F 87% 30.02 in 7.0 mi WSW 4.6 mph - N/A   Clear
3:56 AM 75.9 °F - 72.0 °F 87% 30.02 in 8.0 mi West 5.8 mph - N/A   Partly Cloudy
4:56 AM 75.9 °F - 72.0 °F 87% 30.02 in 7.0 mi West 3.5 mph - N/A   Clear
5:56 AM 75.0 °F - 72.0 °F 90% 30.01 in 6.0 mi West 3.5 mph - N/A   Clear
6:56 AM 77.0 °F - 73.0 °F 88% 30.04 in 4.0 mi WSW 3.5 mph - N/A   Clear
7:56 AM 78.1 °F - 73.9 °F 87% 30.06 in 5.0 mi West 4.6 mph - N/A   Clear
8:56 AM 82.9 °F 89.4 °F 73.9 °F 74% 30.06 in 9.0 mi Variable 5.8 mph - N/A   Clear
9:56 AM 86.0 °F 95.1 °F 75.0 °F 70% 30.05 in 10.0 mi WNW 8.1 mph - N/A   Clear
10:56 AM 88.0 °F 97.5 °F 75.0 °F 65% 30.05 in 10.0 mi Variable 5.8 mph 16.1 mph N/A   Scattered Clouds
11:56 AM 90.0 °F 100.2 °F 75.0 °F 61% 30.04 in 10.0 mi Variable 6.9 mph - N/A   Scattered Clouds
12:56 PM 90.0 °F 99.0 °F 73.9 °F 59% 30.02 in 10.0 mi WNW 8.1 mph - N/A   Scattered Clouds
1:56 PM 91.9 °F 100.7 °F 73.0 °F 54% 29.99 in 10.0 mi NNW 9.2 mph - N/A   Partly Cloudy
2:56 PM 91.0 °F 100.4 °F 73.9 °F 57% 29.98 in 10.0 mi NNW 6.9 mph - N/A   Partly Cloudy
3:56 PM 90.0 °F 100.2 °F 75.0 °F 61% 29.98 in 10.0 mi NW 5.8 mph - N/A   Scattered Clouds
4:56 PM 84.9 °F 93.3 °F 75.0 °F 72% 29.98 in 10.0 mi West 6.9 mph 17.3 mph N/A   Mostly Cloudy
5:56 PM 82.0 °F 87.9 °F 73.9 °F 76% 29.97 in 10.0 mi West 4.6 mph - N/A   Clear
6:56 PM 82.9 °F 90.2 °F 75.0 °F 77% 29.97 in 10.0 mi West 3.5 mph - N/A   Clear
8:56 PM 80.1 °F 85.1 °F 75.0 °F 85% 30.01 in 10.0 mi West 5.8 mph - N/A   Mostly Cloudy
9:56 PM 79.0 °F - 75.0 °F 88% 30.03 in 10.0 mi WNW 3.5 mph - N/A   Partly Cloudy
10:56 PM 79.0 °F - 75.0 °F 88% 30.03 in 10.0 mi Calm Calm - N/A   Clear
11:56 PM 78.1 °F - 75.0 °F 90% 30.02 in 9.0 mi Calm Calm - N/A   Clear